DLH82V EDDF-LPPR

Flight info

Callsign DLH82V
Flight time 2h 32m
Altitude 35000
Route SOBRA7D SOBRA Y180 DIK UN857 TOLVU DCT RAPOR DCT GIMER DCT ESTOC UT300 PON UN872 GODIX/N0436F310 UN872 DIDAK/N0442F350 UN872 ERIGA UZ218 FUJTI DCT ATLEN DCT INSID T326 ASPOR
Aircraft A321/M-SDE2E3FGIJ1LORWXYZ/HB1

Departure

Time 2026-04-17 05:39
Airport Frankfurt Main Airport (EDDF)

Arrival

Time 2026-04-17 08:11
Airport Francisco de Sá Carneiro Airport (LPPR)
Time Latitude Longitude Altitude Speed Heading
2026-04-17 05:09 50.04753 8.56881 364 ft 0 kts 294°
2026-04-17 05:25 50.04749 8.56893 363 ft 4 kts 294°
2026-04-17 05:25 50.04739 8.56932 363 ft 4 kts 295°
2026-04-17 05:26 50.04730 8.56967 363 ft 4 kts 261°
2026-04-17 05:26 50.04742 8.56997 361 ft 4 kts 207°
2026-04-17 05:26 50.04761 8.57011 361 ft 4 kts 204°
2026-04-17 05:26 50.04786 8.57029 358 ft 4 kts 205°
2026-04-17 05:27 50.04799 8.57038 358 ft 0 kts 205°
2026-04-17 05:30 50.04798 8.57037 358 ft 0 kts 205°
2026-04-17 05:30 50.04793 8.57034 359 ft 2 kts 205°
2026-04-17 05:30 50.04779 8.57023 364 ft 3 kts 205°
2026-04-17 05:30 50.04756 8.57007 365 ft 4 kts 205°
2026-04-17 05:31 50.04725 8.56985 365 ft 6 kts 205°
2026-04-17 05:31 50.04687 8.56957 363 ft 7 kts 205°
2026-04-17 05:31 50.04641 8.56925 362 ft 8 kts 201°
2026-04-17 05:31 50.04585 8.56903 359 ft 8 kts 193°
2026-04-17 05:32 50.04541 8.56887 359 ft 6 kts 192°
2026-04-17 05:32 50.04497 8.56872 359 ft 7 kts 193°
2026-04-17 05:32 50.04455 8.56831 363 ft 8 kts 232°
2026-04-17 05:32 50.04431 8.56743 363 ft 10 kts 249°
2026-04-17 05:33 50.04404 8.56631 361 ft 12 kts 249°
2026-04-17 05:33 50.04372 8.56496 359 ft 14 kts 250°
2026-04-17 05:33 50.04336 8.56344 357 ft 16 kts 250°
2026-04-17 05:33 50.04297 8.56180 360 ft 17 kts 249°
2026-04-17 05:34 50.04253 8.55999 362 ft 19 kts 250°
2026-04-17 05:34 50.04206 8.55803 361 ft 20 kts 249°
2026-04-17 05:34 50.04156 8.55591 353 ft 22 kts 249°
2026-04-17 05:34 50.04102 8.55369 356 ft 22 kts 250°
2026-04-17 05:35 50.04049 8.55146 360 ft 22 kts 250°
2026-04-17 05:35 50.03994 8.54916 359 ft 23 kts 249°
2026-04-17 05:35 50.03935 8.54668 356 ft 25 kts 250°
2026-04-17 05:35 50.03887 8.54466 352 ft 11 kts 249°
2026-04-17 05:36 50.03865 8.54384 355 ft 9 kts 242°
2026-04-17 05:36 50.03814 8.54335 346 ft 9 kts 179°
2026-04-17 05:36 50.03741 8.54371 348 ft 11 kts 159°
2026-04-17 05:36 50.03670 8.54365 353 ft 12 kts 223°
2026-04-17 05:37 50.03624 8.54307 343 ft 8 kts 186°
2026-04-17 05:37 50.03567 8.54329 337 ft 9 kts 165°
2026-04-17 05:37 50.03514 8.54363 352 ft 7 kts 149°
2026-04-17 05:37 50.03497 8.54436 352 ft 8 kts 84°
2026-04-17 05:38 50.03519 8.54537 352 ft 16 kts 70°
2026-04-17 05:38 50.03647 8.55071 348 ft 89 kts 69°
2026-04-17 05:38 50.03940 8.56299 357 ft 150 kts 70°
2026-04-17 05:38 50.04356 8.58019 626 ft 178 kts 69°
2026-04-17 05:39 50.04766 8.59827 1383 ft 176 kts 72°
2026-04-17 05:39 50.05156 8.61677 1930 ft 187 kts 73°
2026-04-17 05:39 50.05579 8.63722 2096 ft 211 kts 73°
2026-04-17 05:39 50.06049 8.65986 2350 ft 226 kts 73°
2026-04-17 05:40 50.06539 8.68331 2953 ft 229 kts 73°
2026-04-17 05:40 50.07033 8.70696 3562 ft 231 kts 75°
2026-04-17 05:40 50.07075 8.73160 4091 ft 232 kts 110°
2026-04-17 05:40 50.06105 8.75113 4638 ft 233 kts 150°
2026-04-17 05:41 50.04555 8.75684 5207 ft 233 kts 183°
2026-04-17 05:41 50.02936 8.75495 5811 ft 234 kts 186°
2026-04-17 05:41 50.01308 8.75270 6417 ft 236 kts 187°
2026-04-17 05:41 49.99682 8.74736 6803 ft 248 kts 195°
2026-04-17 05:42 49.97933 8.74074 7105 ft 267 kts 194°
2026-04-17 05:42 49.96101 8.73389 7690 ft 274 kts 194°
2026-04-17 05:42 49.94233 8.72698 8347 ft 278 kts 194°
2026-04-17 05:42 49.92335 8.72006 9009 ft 282 kts 194°
2026-04-17 05:43 49.90414 8.71310 9645 ft 286 kts 194°
2026-04-17 05:43 49.88485 8.70616 10276 ft 290 kts 194°
2026-04-17 05:43 49.86463 8.69885 10523 ft 309 kts 194°
2026-04-17 05:43 49.84267 8.69088 10653 ft 330 kts 195°
2026-04-17 05:44 49.82102 8.67779 10966 ft 339 kts 212°
2026-04-17 05:44 49.80306 8.65488 11477 ft 341 kts 231°
2026-04-17 05:44 49.79048 8.62397 12042 ft 341 kts 249°
2026-04-17 05:44 49.78481 8.58842 12619 ft 342 kts 265°
2026-04-17 05:45 49.78227 8.55176 13223 ft 344 kts 265°
2026-04-17 05:45 49.77969 8.51483 13823 ft 347 kts 265°
2026-04-17 05:45 49.77702 8.47760 14368 ft 350 kts 265°
2026-04-17 05:45 49.77428 8.44013 14904 ft 352 kts 265°
2026-04-17 05:46 49.77148 8.40242 15435 ft 354 kts 265°
2026-04-17 05:46 49.77010 8.36430 15953 ft 355 kts 274°
2026-04-17 05:46 49.77347 8.32643 16482 ft 356 kts 284°
2026-04-17 05:46 49.77956 8.28917 16999 ft 359 kts 285°
2026-04-17 05:47 49.78565 8.25165 17514 ft 361 kts 285°
2026-04-17 05:47 49.79172 8.21383 18023 ft 363 kts 284°
2026-04-17 05:47 49.79780 8.17572 18522 ft 366 kts 284°
2026-04-17 05:47 49.80389 8.13744 18970 ft 368 kts 284°
2026-04-17 05:48 49.81003 8.09877 19409 ft 370 kts 284°
2026-04-17 05:48 49.81618 8.05996 19849 ft 372 kts 284°
2026-04-17 05:48 49.82237 8.02101 20288 ft 374 kts 284°
2026-04-17 05:48 49.82857 7.98182 20732 ft 375 kts 284°
2026-04-17 05:49 49.83480 7.94244 21163 ft 377 kts 284°
2026-04-17 05:49 49.84097 7.90340 21586 ft 379 kts 284°
2026-04-17 05:49 49.84718 7.86366 21995 ft 381 kts 284°
2026-04-17 05:49 49.85338 7.82365 22415 ft 383 kts 284°
2026-04-17 05:50 49.85959 7.78347 22816 ft 384 kts 284°
2026-04-17 05:50 49.86586 7.74312 23218 ft 386 kts 284°
2026-04-17 05:50 49.87224 7.70265 23591 ft 388 kts 284°
2026-04-17 05:50 49.87866 7.66182 23934 ft 391 kts 284°
2026-04-17 05:51 49.88506 7.62076 24260 ft 393 kts 284°
2026-04-17 05:51 49.89145 7.57943 24592 ft 394 kts 284°
2026-04-17 05:51 49.89780 7.53796 24941 ft 396 kts 284°
2026-04-17 05:51 49.90417 7.49634 25274 ft 398 kts 284°
2026-04-17 05:52 49.91057 7.45450 25599 ft 399 kts 284°
2026-04-17 05:52 49.91698 7.41249 25923 ft 401 kts 284°
2026-04-17 05:52 49.92341 7.37035 26272 ft 403 kts 284°
2026-04-17 05:52 49.92987 7.32795 26585 ft 404 kts 284°
2026-04-17 05:53 49.93633 7.28541 26898 ft 406 kts 284°
2026-04-17 05:53 49.94269 7.24324 27208 ft 407 kts 284°
2026-04-17 05:53 49.94915 7.20032 27525 ft 409 kts 284°
2026-04-17 05:53 49.95571 7.15666 27843 ft 411 kts 284°
2026-04-17 05:54 49.96212 7.11404 28151 ft 412 kts 284°
2026-04-17 05:54 49.96864 7.07059 28442 ft 414 kts 284°
2026-04-17 05:54 49.97515 7.02694 28739 ft 415 kts 283°
2026-04-17 05:54 49.98164 6.98315 29030 ft 417 kts 283°
2026-04-17 05:55 49.98813 6.93913 29316 ft 418 kts 283°
2026-04-17 05:55 49.99214 6.89427 29586 ft 421 kts 274°
2026-04-17 05:55 49.99169 6.84865 29840 ft 424 kts 269°
2026-04-17 05:55 49.99025 6.80286 30124 ft 425 kts 269°
2026-04-17 05:56 49.98885 6.75700 30381 ft 425 kts 269°
2026-04-17 05:56 49.98749 6.71105 30598 ft 426 kts 269°
2026-04-17 05:56 49.98612 6.66495 30805 ft 427 kts 269°
2026-04-17 05:56 49.98472 6.61880 31005 ft 428 kts 269°
2026-04-17 05:57 49.98141 6.57276 31247 ft 430 kts 261°
2026-04-17 05:57 49.97334 6.52801 31514 ft 431 kts 252°
2026-04-17 05:57 49.96157 6.48511 31792 ft 432 kts 249°
2026-04-17 05:57 49.94956 6.44254 32080 ft 430 kts 249°
2026-04-17 05:58 49.93760 6.40004 32374 ft 429 kts 249°
2026-04-17 05:58 49.92572 6.35769 32680 ft 427 kts 249°
2026-04-17 05:58 49.91386 6.31545 32987 ft 426 kts 249°
2026-04-17 05:59 49.89003 6.23178 33573 ft 423 kts 248°
2026-04-17 05:59 49.87804 6.19018 33866 ft 421 kts 249°
2026-04-17 05:59 49.86621 6.14870 34145 ft 421 kts 247°
2026-04-17 05:59 49.85179 6.10923 34380 ft 423 kts 238°
2026-04-17 06:00 49.83506 6.07243 34564 ft 423 kts 238°
2026-04-17 06:00 49.81803 6.03533 34779 ft 422 kts 238°
2026-04-17 06:00 49.80100 5.99837 34959 ft 422 kts 238°
2026-04-17 06:00 49.78392 5.96140 35152 ft 422 kts 238°
2026-04-17 06:01 49.76688 5.92444 35235 ft 421 kts 238°
2026-04-17 06:01 49.73675 5.84803 35231 ft 413 kts 250°
2026-04-17 06:02 49.71735 5.76479 35231 ft 411 kts 252°
2026-04-17 06:02 49.69811 5.68159 35230 ft 411 kts 252°
2026-04-17 06:03 49.67867 5.59846 35230 ft 411 kts 252°
2026-04-17 06:03 49.65921 5.51544 35240 ft 411 kts 252°
2026-04-17 06:04 49.63966 5.43247 35241 ft 412 kts 252°
2026-04-17 06:04 49.62014 5.34940 35229 ft 412 kts 252°
2026-04-17 06:05 49.60197 5.26568 35239 ft 412 kts 254°
2026-04-17 06:05 49.58479 5.18155 35248 ft 411 kts 255°
2026-04-17 06:06 49.56987 5.09653 35255 ft 411 kts 257°
2026-04-17 06:06 49.55553 5.01131 35258 ft 411 kts 257°
2026-04-17 06:07 49.54067 4.92633 35257 ft 411 kts 256°
2026-04-17 06:07 49.52541 4.84150 35259 ft 411 kts 256°
2026-04-17 06:08 49.51012 4.75737 35257 ft 411 kts 256°
2026-04-17 06:08 49.49478 4.67272 35263 ft 411 kts 256°
2026-04-17 06:09 49.47944 4.58809 35262 ft 411 kts 256°
2026-04-17 06:09 49.46651 4.51722 35265 ft 411 kts 256°
2026-04-17 06:10 49.45113 4.43328 35265 ft 411 kts 255°
2026-04-17 06:10 49.43554 4.34882 35249 ft 411 kts 255°
2026-04-17 06:11 49.41992 4.26438 35255 ft 411 kts 255°
2026-04-17 06:11 49.40419 4.18000 35259 ft 411 kts 255°
2026-04-17 06:12 49.38842 4.09566 35255 ft 411 kts 255°
2026-04-17 06:12 49.37258 4.01134 35257 ft 411 kts 255°
2026-04-17 06:13 49.35752 3.92672 35260 ft 411 kts 258°
2026-04-17 06:13 49.34555 3.84112 35259 ft 410 kts 259°
2026-04-17 06:14 49.33420 3.75536 35256 ft 411 kts 259°
2026-04-17 06:14 49.32223 3.66982 35255 ft 411 kts 258°
2026-04-17 06:15 49.30977 3.58440 35252 ft 411 kts 258°
2026-04-17 06:15 49.29716 3.49906 35249 ft 411 kts 258°
2026-04-17 06:16 49.28452 3.41371 35252 ft 411 kts 258°
2026-04-17 06:16 49.27189 3.32839 35249 ft 411 kts 258°
2026-04-17 06:17 49.25930 3.24297 35245 ft 411 kts 258°
2026-04-17 06:17 49.24663 3.15768 35240 ft 411 kts 258°
2026-04-17 06:18 49.23383 3.07246 35241 ft 411 kts 258°
2026-04-17 06:18 49.22109 2.98778 35239 ft 411 kts 258°
2026-04-17 06:19 49.20813 2.90255 35240 ft 412 kts 258°
2026-04-17 06:19 49.19516 2.81726 35238 ft 412 kts 258°
2026-04-17 06:20 49.18204 2.73205 35252 ft 412 kts 258°
2026-04-17 06:20 49.16891 2.64687 35257 ft 412 kts 258°
2026-04-17 06:21 49.15575 2.56163 35254 ft 412 kts 258°
2026-04-17 06:21 49.14253 2.47647 35256 ft 412 kts 258°
2026-04-17 06:22 49.12940 2.39120 35255 ft 412 kts 261°
2026-04-17 06:22 49.12125 2.30471 35256 ft 412 kts 263°
2026-04-17 06:23 49.11326 2.21812 35260 ft 412 kts 263°
2026-04-17 06:23 49.10519 2.13154 35260 ft 412 kts 263°
2026-04-17 06:24 49.09596 2.04519 35255 ft 413 kts 256°
2026-04-17 06:24 49.07450 1.96374 35256 ft 415 kts 247°
2026-04-17 06:25 49.05034 1.88366 35242 ft 416 kts 247°
2026-04-17 06:25 49.02620 1.80357 35217 ft 416 kts 247°
2026-04-17 06:26 49.00203 1.72344 35231 ft 416 kts 247°
2026-04-17 06:26 48.97776 1.64346 35243 ft 416 kts 247°
2026-04-17 06:27 48.95333 1.56358 35256 ft 416 kts 247°
2026-04-17 06:27 48.92893 1.48380 35256 ft 416 kts 247°
2026-04-17 06:28 48.90451 1.40408 35253 ft 416 kts 247°
2026-04-17 06:28 48.88017 1.32497 35253 ft 416 kts 247°
2026-04-17 06:29 48.85568 1.24541 35264 ft 416 kts 246°
2026-04-17 06:29 48.83112 1.16599 35264 ft 415 kts 246°
2026-04-17 06:30 48.80651 1.08682 35258 ft 415 kts 246°
2026-04-17 06:30 48.78180 1.00782 35256 ft 415 kts 246°
2026-04-17 06:31 48.75706 0.92891 35257 ft 414 kts 246°
2026-04-17 06:31 48.72982 0.85195 35252 ft 416 kts 240°
2026-04-17 06:32 48.69955 0.77727 35251 ft 416 kts 240°
2026-04-17 06:32 48.66925 0.70275 35251 ft 416 kts 240°
2026-04-17 06:33 48.63895 0.62825 35231 ft 416 kts 240°
2026-04-17 06:33 48.60857 0.55380 35232 ft 416 kts 240°
2026-04-17 06:34 48.57808 0.47928 35237 ft 417 kts 240°
2026-04-17 06:34 48.54762 0.40483 35246 ft 417 kts 240°
2026-04-17 06:35 48.51711 0.33049 35256 ft 417 kts 240°
2026-04-17 06:35 48.48651 0.25630 35243 ft 417 kts 240°
2026-04-17 06:36 48.45587 0.18219 35252 ft 416 kts 240°
2026-04-17 06:36 48.42519 0.10821 35249 ft 416 kts 240°
2026-04-17 06:37 48.39444 0.03432 35247 ft 417 kts 240°
2026-04-17 06:37 48.36385 -0.03901 35252 ft 416 kts 239°
2026-04-17 06:38 48.33078 -0.11047 35252 ft 417 kts 235°
2026-04-17 06:38 48.29557 -0.17955 35248 ft 416 kts 234°
2026-04-17 06:39 48.26032 -0.24850 35236 ft 416 kts 235°
2026-04-17 06:39 48.22528 -0.31746 35244 ft 416 kts 235°
2026-04-17 06:40 48.19014 -0.38629 35235 ft 416 kts 235°
2026-04-17 06:40 48.15501 -0.45513 35229 ft 416 kts 235°
2026-04-17 06:41 48.11976 -0.52389 35228 ft 416 kts 234°
2026-04-17 06:41 48.08442 -0.59249 35224 ft 416 kts 234°
2026-04-17 06:42 48.04905 -0.66107 35238 ft 417 kts 234°
2026-04-17 06:42 48.01358 -0.72958 35238 ft 417 kts 234°
2026-04-17 06:43 47.97803 -0.79805 35226 ft 417 kts 234°
2026-04-17 06:43 47.94245 -0.86651 35244 ft 417 kts 234°
2026-04-17 06:44 47.90715 -0.93439 35248 ft 417 kts 234°
2026-04-17 06:44 47.87160 -1.00255 35248 ft 416 kts 234°
2026-04-17 06:45 47.83597 -1.07055 35240 ft 416 kts 234°
2026-04-17 06:45 47.80033 -1.13835 35240 ft 416 kts 234°
2026-04-17 06:46 47.76466 -1.20607 35222 ft 416 kts 234°
2026-04-17 06:46 47.72889 -1.27387 35231 ft 417 kts 234°
2026-04-17 06:47 47.69312 -1.34157 35239 ft 417 kts 234°
2026-04-17 06:47 47.65731 -1.40928 35240 ft 416 kts 234°
2026-04-17 06:48 47.62144 -1.47668 35240 ft 416 kts 233°
2026-04-17 06:48 47.58505 -1.54350 35240 ft 417 kts 232°
2026-04-17 06:49 47.54663 -1.60726 35227 ft 418 kts 230°
2026-04-17 06:49 47.50711 -1.67050 35241 ft 419 kts 230°
2026-04-17 06:50 47.46785 -1.73408 35247 ft 418 kts 230°
2026-04-17 06:50 47.42895 -1.79787 35247 ft 418 kts 230°
2026-04-17 06:51 47.39007 -1.86158 35247 ft 418 kts 230°
2026-04-17 06:51 47.35016 -1.92386 35231 ft 420 kts 223°
2026-04-17 06:52 47.30132 -1.97171 35229 ft 423 kts 214°
2026-04-17 06:52 47.25089 -2.01660 35233 ft 424 kts 214°
2026-04-17 06:53 47.20040 -2.06159 35238 ft 424 kts 214°
2026-04-17 06:53 47.15003 -2.10657 35238 ft 423 kts 214°
2026-04-17 06:54 47.09970 -2.15135 35242 ft 423 kts 214°
2026-04-17 06:54 47.04935 -2.19594 35242 ft 423 kts 214°
2026-04-17 06:55 46.99934 -2.24021 35240 ft 422 kts 214°
2026-04-17 06:55 46.94872 -2.28496 35238 ft 422 kts 214°
2026-04-17 06:56 46.89871 -2.32901 35232 ft 422 kts 214°
2026-04-17 06:56 46.84835 -2.37323 35233 ft 422 kts 214°
2026-04-17 06:57 46.79801 -2.41742 35231 ft 422 kts 214°
2026-04-17 06:57 46.74768 -2.46157 35238 ft 422 kts 214°
2026-04-17 06:58 46.69737 -2.50556 35242 ft 421 kts 213°
2026-04-17 06:58 46.65525 -2.54230 35239 ft 421 kts 214°
2026-04-17 06:59 46.60504 -2.58616 35237 ft 421 kts 214°
2026-04-17 06:59 46.55484 -2.62982 35238 ft 420 kts 213°
2026-04-17 07:00 46.50464 -2.67322 35224 ft 420 kts 213°
2026-04-17 07:00 46.45446 -2.71663 35229 ft 420 kts 214°
2026-04-17 07:01 46.40423 -2.76003 35234 ft 420 kts 213°
2026-04-17 07:01 46.35402 -2.80331 35229 ft 420 kts 213°
2026-04-17 07:02 46.30381 -2.84645 35231 ft 419 kts 213°
2026-04-17 07:02 46.25540 -2.89171 35233 ft 415 kts 223°
2026-04-17 07:03 46.21142 -2.94576 35234 ft 415 kts 223°
2026-04-17 07:03 46.16744 -2.99959 35233 ft 415 kts 222°
2026-04-17 07:04 46.12336 -3.05319 35216 ft 415 kts 223°
2026-04-17 07:04 46.07932 -3.10674 35230 ft 414 kts 223°
2026-04-17 07:05 46.03530 -3.16012 35239 ft 414 kts 223°
2026-04-17 07:05 45.99130 -3.21343 35247 ft 413 kts 222°
2026-04-17 07:06 45.94734 -3.26650 35244 ft 412 kts 222°
2026-04-17 07:06 45.90344 -3.31936 35237 ft 411 kts 222°
2026-04-17 07:07 45.85955 -3.37199 35238 ft 411 kts 222°
2026-04-17 07:07 45.81571 -3.42462 35238 ft 410 kts 222°
2026-04-17 07:08 45.77223 -3.47677 35237 ft 410 kts 222°
2026-04-17 07:08 45.72847 -3.52919 35240 ft 410 kts 222°
2026-04-17 07:09 45.68468 -3.58134 35232 ft 409 kts 222°
2026-04-17 07:09 45.64102 -3.63328 35240 ft 408 kts 222°
2026-04-17 07:10 45.59744 -3.68500 35239 ft 407 kts 222°
2026-04-17 07:10 45.55386 -3.73661 35238 ft 407 kts 222°
2026-04-17 07:11 45.51033 -3.78799 35233 ft 406 kts 222°
2026-04-17 07:11 45.46686 -3.83927 35236 ft 405 kts 222°
2026-04-17 07:12 45.42343 -3.89046 35246 ft 405 kts 222°
2026-04-17 07:12 45.37999 -3.94155 35242 ft 404 kts 222°
2026-04-17 07:13 45.33661 -3.99239 35241 ft 404 kts 222°
2026-04-17 07:13 45.29326 -4.04313 35222 ft 404 kts 222°
2026-04-17 07:14 45.24990 -4.09375 35230 ft 403 kts 222°
2026-04-17 07:14 45.20652 -4.14429 35230 ft 403 kts 222°
2026-04-17 07:15 45.16313 -4.19463 35234 ft 403 kts 222°
2026-04-17 07:15 45.12005 -4.24464 35239 ft 403 kts 222°
2026-04-17 07:16 45.07667 -4.29491 35231 ft 403 kts 222°
2026-04-17 07:16 45.03323 -4.34512 35225 ft 403 kts 222°
2026-04-17 07:17 44.98977 -4.39532 35231 ft 404 kts 222°
2026-04-17 07:17 44.92452 -4.47056 35233 ft 404 kts 222°
2026-04-17 07:18 44.88099 -4.52053 35221 ft 403 kts 221°
2026-04-17 07:18 44.83740 -4.57032 35226 ft 403 kts 221°
2026-04-17 07:19 44.79391 -4.62010 35233 ft 403 kts 221°
2026-04-17 07:19 44.75038 -4.66972 35230 ft 402 kts 221°
2026-04-17 07:20 44.70694 -4.71919 35231 ft 402 kts 221°
2026-04-17 07:20 44.66352 -4.76863 35229 ft 402 kts 221°
2026-04-17 07:21 44.62004 -4.81791 35229 ft 402 kts 221°
2026-04-17 07:21 44.57653 -4.86707 35228 ft 402 kts 221°
2026-04-17 07:22 44.53294 -4.91618 35229 ft 402 kts 221°
2026-04-17 07:22 44.48918 -4.96480 35222 ft 402 kts 219°
2026-04-17 07:23 44.44421 -5.01043 35227 ft 402 kts 218°
2026-04-17 07:23 44.39843 -5.05527 35228 ft 402 kts 218°
2026-04-17 07:24 44.35288 -5.10036 35232 ft 401 kts 218°
2026-04-17 07:24 44.30752 -5.14570 35228 ft 401 kts 218°
2026-04-17 07:25 44.26215 -5.19106 35215 ft 401 kts 218°
2026-04-17 07:25 44.21682 -5.23634 35217 ft 401 kts 218°
2026-04-17 07:26 44.17147 -5.28154 35217 ft 401 kts 218°
2026-04-17 07:26 44.12613 -5.32667 35219 ft 401 kts 218°
2026-04-17 07:27 44.08074 -5.37160 35227 ft 400 kts 217°
2026-04-17 07:27 44.03540 -5.41642 35228 ft 400 kts 218°
2026-04-17 07:28 43.99006 -5.46122 35221 ft 399 kts 218°
2026-04-17 07:28 43.94477 -5.50590 35219 ft 399 kts 217°
2026-04-17 07:29 43.89945 -5.55043 35218 ft 399 kts 217°
2026-04-17 07:29 43.85441 -5.59462 35201 ft 399 kts 217°
2026-04-17 07:30 43.80903 -5.63906 35203 ft 400 kts 217°
2026-04-17 07:30 43.76358 -5.68344 35210 ft 400 kts 217°
2026-04-17 07:31 43.71817 -5.72785 35213 ft 400 kts 217°
2026-04-17 07:31 43.67273 -5.77215 35198 ft 400 kts 217°
2026-04-17 07:32 43.62726 -5.81630 35203 ft 400 kts 217°
2026-04-17 07:32 43.58177 -5.86042 35227 ft 400 kts 217°
2026-04-17 07:33 43.53623 -5.90456 35229 ft 400 kts 217°
2026-04-17 07:33 43.49074 -5.94867 35240 ft 400 kts 217°
2026-04-17 07:34 43.44521 -5.99269 35213 ft 400 kts 217°
2026-04-17 07:34 43.39984 -6.03633 35208 ft 401 kts 217°
2026-04-17 07:35 43.35409 -6.08023 35207 ft 401 kts 217°
2026-04-17 07:35 43.30829 -6.12413 35213 ft 401 kts 216°
2026-04-17 07:36 43.26257 -6.16796 35199 ft 401 kts 216°
2026-04-17 07:36 43.21683 -6.21174 35192 ft 401 kts 216°
2026-04-17 07:37 43.17100 -6.25556 35195 ft 402 kts 216°
2026-04-17 07:37 43.12515 -6.29921 35191 ft 402 kts 216°
2026-04-17 07:38 43.07919 -6.34292 35196 ft 402 kts 216°
2026-04-17 07:38 43.03320 -6.38652 35189 ft 403 kts 216°
2026-04-17 07:39 42.98714 -6.43010 35190 ft 403 kts 216°
2026-04-17 07:39 42.94136 -6.47340 35204 ft 403 kts 216°
2026-04-17 07:40 42.89532 -6.51693 35205 ft 402 kts 216°
2026-04-17 07:40 42.84928 -6.56025 35210 ft 402 kts 216°
2026-04-17 07:41 42.80321 -6.60356 35193 ft 402 kts 216°
2026-04-17 07:41 42.75718 -6.64681 35195 ft 402 kts 216°
2026-04-17 07:42 42.71113 -6.68998 35195 ft 402 kts 216°
2026-04-17 07:42 42.66501 -6.73307 35193 ft 402 kts 216°
2026-04-17 07:43 42.61887 -6.77607 35199 ft 402 kts 216°
2026-04-17 07:43 42.57269 -6.81911 35200 ft 402 kts 216°
2026-04-17 07:44 42.52650 -6.86205 35215 ft 403 kts 216°
2026-04-17 07:44 42.48047 -6.90473 34936 ft 397 kts 216°
2026-04-17 07:45 42.45784 -6.92569 34642 ft 391 kts 216°
2026-04-17 07:45 42.43579 -6.94611 34235 ft 387 kts 216°
2026-04-17 07:45 42.41340 -6.96687 33775 ft 383 kts 216°
2026-04-17 07:45 42.39156 -6.98711 33352 ft 377 kts 216°
2026-04-17 07:46 42.37008 -7.00700 32937 ft 372 kts 215°
2026-04-17 07:46 42.34889 -7.02657 32529 ft 366 kts 215°
2026-04-17 07:46 42.32820 -7.04561 32129 ft 362 kts 215°
2026-04-17 07:46 42.30750 -7.06467 31726 ft 358 kts 215°
2026-04-17 07:47 42.28752 -7.08434 31319 ft 354 kts 221°
2026-04-17 07:47 42.27044 -7.10795 30893 ft 350 kts 231°
2026-04-17 07:47 42.25672 -7.13493 30480 ft 348 kts 237°
2026-04-17 07:47 42.24409 -7.16264 30033 ft 345 kts 237°
2026-04-17 07:48 42.23151 -7.19001 29596 ft 341 kts 237°
2026-04-17 07:48 42.21910 -7.21696 29222 ft 336 kts 237°
2026-04-17 07:48 42.20685 -7.24352 28842 ft 331 kts 237°
2026-04-17 07:48 42.19476 -7.26970 28456 ft 326 kts 237°
2026-04-17 07:49 42.18284 -7.29549 28098 ft 323 kts 237°
2026-04-17 07:49 42.17098 -7.32108 27720 ft 322 kts 237°
2026-04-17 07:49 42.15915 -7.34663 27374 ft 321 kts 237°
2026-04-17 07:49 42.15133 -7.36353 27141 ft 320 kts 237°
2026-04-17 07:50 42.13961 -7.38887 26786 ft 318 kts 237°
2026-04-17 07:50 42.12796 -7.41402 26429 ft 316 kts 237°
2026-04-17 07:50 42.11638 -7.43902 26070 ft 314 kts 237°
2026-04-17 07:50 42.10488 -7.46385 25710 ft 311 kts 237°
2026-04-17 07:51 42.09344 -7.48849 25349 ft 309 kts 237°
2026-04-17 07:51 42.08204 -7.51296 24985 ft 308 kts 237°
2026-04-17 07:51 42.07070 -7.53730 24619 ft 306 kts 238°
2026-04-17 07:51 42.05942 -7.56146 24243 ft 304 kts 238°
2026-04-17 07:52 42.04821 -7.58546 23878 ft 302 kts 238°
2026-04-17 07:52 42.03707 -7.60930 23472 ft 300 kts 237°
2026-04-17 07:52 42.02604 -7.63293 23081 ft 297 kts 237°
2026-04-17 07:52 42.01507 -7.65640 22704 ft 296 kts 237°
2026-04-17 07:53 42.00412 -7.67974 22334 ft 294 kts 237°
2026-04-17 07:53 41.99322 -7.70299 21957 ft 293 kts 237°
2026-04-17 07:53 41.98239 -7.72616 21579 ft 292 kts 238°
2026-04-17 07:53 41.97163 -7.74923 21211 ft 291 kts 238°
2026-04-17 07:54 41.96088 -7.77219 20839 ft 290 kts 238°
2026-04-17 07:54 41.95015 -7.79505 20469 ft 289 kts 238°
2026-04-17 07:54 41.93945 -7.81782 20098 ft 288 kts 238°
2026-04-17 07:54 41.92879 -7.84046 19718 ft 287 kts 238°
2026-04-17 07:55 41.91810 -7.86316 19360 ft 287 kts 238°
2026-04-17 07:55 41.90744 -7.88578 18984 ft 286 kts 238°
2026-04-17 07:55 41.89694 -7.90804 18631 ft 286 kts 238°
2026-04-17 07:55 41.88631 -7.93051 18238 ft 285 kts 238°
2026-04-17 07:56 41.87574 -7.95288 17853 ft 283 kts 238°
2026-04-17 07:56 41.86507 -7.97546 17486 ft 282 kts 238°
2026-04-17 07:56 41.85472 -7.99735 17122 ft 281 kts 238°
2026-04-17 07:56 41.84428 -8.01946 16762 ft 280 kts 238°
2026-04-17 07:57 41.83386 -8.04146 16401 ft 279 kts 238°
2026-04-17 07:57 41.82346 -8.06340 16049 ft 278 kts 238°
2026-04-17 07:57 41.81312 -8.08523 15693 ft 276 kts 238°
2026-04-17 07:57 41.80316 -8.10723 15339 ft 276 kts 239°
2026-04-17 07:58 41.79349 -8.12938 14991 ft 275 kts 240°
2026-04-17 07:58 41.78395 -8.15150 14638 ft 274 kts 240°
2026-04-17 07:58 41.77443 -8.17353 14289 ft 273 kts 239°
2026-04-17 07:58 41.76490 -8.19552 13943 ft 272 kts 239°
2026-04-17 07:59 41.75538 -8.21738 13574 ft 271 kts 239°
2026-04-17 07:59 41.74586 -8.23916 13223 ft 271 kts 239°
2026-04-17 07:59 41.73654 -8.26100 12878 ft 270 kts 240°
2026-04-17 07:59 41.72734 -8.28286 12542 ft 269 kts 240°
2026-04-17 08:00 41.71821 -8.30465 12187 ft 268 kts 240°
2026-04-17 08:00 41.70910 -8.32636 11864 ft 267 kts 240°
2026-04-17 08:00 41.70004 -8.34797 11536 ft 266 kts 239°
2026-04-17 08:00 41.69102 -8.36945 11199 ft 264 kts 239°
2026-04-17 08:01 41.68205 -8.39075 10855 ft 262 kts 239°
2026-04-17 08:01 41.67311 -8.41190 10525 ft 260 kts 239°
2026-04-17 08:01 41.66423 -8.43292 10197 ft 259 kts 239°
2026-04-17 08:01 41.65537 -8.45383 9851 ft 257 kts 239°
2026-04-17 08:02 41.64659 -8.47451 9511 ft 255 kts 239°
2026-04-17 08:02 41.63786 -8.49506 9196 ft 253 kts 239°
2026-04-17 08:02 41.62918 -8.51547 8874 ft 252 kts 239°
2026-04-17 08:02 41.62055 -8.53578 8546 ft 251 kts 239°
2026-04-17 08:03 41.61189 -8.55615 8138 ft 254 kts 239°
2026-04-17 08:03 41.60317 -8.57670 7755 ft 255 kts 239°
2026-04-17 08:03 41.59445 -8.59691 7424 ft 253 kts 237°
2026-04-17 08:03 41.58499 -8.61704 7103 ft 252 kts 236°
2026-04-17 08:04 41.57545 -8.63653 6780 ft 250 kts 235°
2026-04-17 08:04 41.56592 -8.65585 6456 ft 248 kts 235°
2026-04-17 08:04 41.55658 -8.67476 6131 ft 246 kts 235°
2026-04-17 08:04 41.54721 -8.69380 5824 ft 244 kts 235°
2026-04-17 08:05 41.53803 -8.71254 5517 ft 237 kts 235°
2026-04-17 08:05 41.52888 -8.73051 5230 ft 232 kts 227°
2026-04-17 08:05 41.51648 -8.74323 4940 ft 220 kts 203°
2026-04-17 08:05 41.50187 -8.74744 4548 ft 216 kts 178°
2026-04-17 08:06 41.48722 -8.74424 4246 ft 211 kts 169°
2026-04-17 08:06 41.47297 -8.74046 3984 ft 206 kts 169°
2026-04-17 08:06 41.45895 -8.73676 3741 ft 205 kts 169°
2026-04-17 08:06 41.44498 -8.73307 3500 ft 205 kts 169°
2026-04-17 08:07 41.43104 -8.72939 3252 ft 205 kts 169°
2026-04-17 08:07 41.41707 -8.72571 2993 ft 205 kts 169°
2026-04-17 08:07 41.40307 -8.72202 2759 ft 206 kts 169°
2026-04-17 08:07 41.38897 -8.71830 2514 ft 207 kts 168°
2026-04-17 08:08 41.37488 -8.71459 2258 ft 204 kts 168°
2026-04-17 08:08 41.36149 -8.71107 2025 ft 187 kts 168°
2026-04-17 08:08 41.34926 -8.70785 1813 ft 170 kts 168°
2026-04-17 08:08 41.33811 -8.70492 1590 ft 158 kts 168°
2026-04-17 08:09 41.32748 -8.70212 1394 ft 154 kts 167°
2026-04-17 08:09 41.31701 -8.69937 1205 ft 151 kts 167°
2026-04-17 08:09 41.30696 -8.69673 1022 ft 145 kts 167°
2026-04-17 08:09 41.29715 -8.69415 843 ft 142 kts 167°
2026-04-17 08:10 41.28751 -8.69162 678 ft 141 kts 168°
2026-04-17 08:10 41.27807 -8.68914 517 ft 139 kts 167°
2026-04-17 08:10 41.26856 -8.68665 353 ft 139 kts 167°
2026-04-17 08:10 41.25911 -8.68414 183 ft 138 kts 167°
2026-04-17 08:11 41.25060 -8.68188 187 ft 104 kts 169°
2026-04-17 08:11 41.24517 -8.68048 207 ft 55 kts 169°
2026-04-17 08:11 41.24225 -8.67972 216 ft 37 kts 169°
2026-04-17 08:11 41.24005 -8.67914 221 ft 24 kts 169°
2026-04-17 08:12 41.23912 -8.67884 222 ft 8 kts 154°
2026-04-17 08:12 41.23884 -8.67824 222 ft 8 kts 90°
2026-04-17 08:12 41.23898 -8.67764 224 ft 5 kts 72°
2026-04-17 08:12 41.23904 -8.67737 225 ft 1 kts 76°
2026-04-17 08:13 41.23908 -8.67712 228 ft 6 kts 77°
2026-04-17 08:13 41.23921 -8.67625 234 ft 13 kts 79°
2026-04-17 08:13 41.23924 -8.67531 237 ft 8 kts 111°
2026-04-17 08:14 41.23830 -8.67477 239 ft 10 kts 169°
2026-04-17 08:14 41.23759 -8.67451 239 ft 11 kts 149°
2026-04-17 08:14 41.23708 -8.67371 241 ft 11 kts 132°
2026-04-17 08:14 41.23650 -8.67337 242 ft 8 kts 169°
2026-04-17 08:15 41.23633 -8.67290 244 ft 5 kts 84°
2026-04-17 08:15 41.23638 -8.67258 245 ft 2 kts 79°
2026-04-17 08:15 41.23640 -8.67243 245 ft 1 kts 79°
2026-04-17 08:15 41.23640 -8.67241 245 ft 0 kts 79°